Time,TemperatureF,DewpointF,PressureIn,WindDirection,WindDirectionDegrees,WindSpeedMPH,WindSpeedGustMPH,Humidity,HourlyPrecipIn,Conditions,Clouds,dailyrainin,SoftwareType,DateUTC
2013-11-06 00:02:00,28.3,19.1,30.16,WNW,302,0.0,0.0,68,0.00,,,0.00,WUHU216DAVISVP2,2013-11-06 06:02:00,
2013-11-06 00:07:00,28.1,19.0,30.16,WNW,303,0.0,0.0,68,0.00,,,0.00,WUHU216DAVISVP2,2013-11-06 06:07:00,
2013-11-06 00:12:00,28.0,18.9,30.16,WNW,303,0.0,0.0,68,0.00,,,0.00,WUHU216DAVISVP2,2013-11-06 06:12:00,
2013-11-06 00:17:00,27.8,19.0,30.15,WNW,302,0.0,0.0,69,0.00,,,0.00,WUHU216DAVISVP2,2013-11-06 06:17:00,
2013-11-06 00:22:00,27.5,18.7,30.15,WNW,302,0.0,0.0,69,0.00,,,0.00,WUHU216DAVISVP2,2013-11-06 06:22:00,
2013-11-06 00:27:00,27.3,18.5,30.15,WNW,302,0.0,0.0,69,0.00,,,0.00,WUHU216DAVISVP2,2013-11-06 06:27:00,
2013-11-06 00:32:00,27.2,18.4,30.15,WNW,302,0.0,0.0,69,0.00,,,0.00,WUHU216DAVISVP2,2013-11-06 06:32:00,
2013-11-06 00:37:00,27.0,18.6,30.15,WNW,302,0.0,0.0,70,0.00,,,0.00,WUHU216DAVISVP2,2013-11-06 06:37:00,
2013-11-06 00:42:00,26.9,18.5,30.15,WNW,302,0.0,0.0,70,0.00,,,0.00,WUHU216DAVISVP2,2013-11-06 06:42:00,
2013-11-06 00:47:00,26.7,18.3,30.15,WNW,303,0.0,0.0,70,0.00,,,0.00,WUHU216DAVISVP2,2013-11-06 06:47:00,
2013-11-06 00:52:00,26.5,18.1,30.15,WNW,302,0.0,0.0,70,0.00,,,0.00,WUHU216DAVISVP2,2013-11-06 06:52:00,
2013-11-06 00:57:00,26.2,17.8,30.15,WNW,303,0.0,0.0,70,0.00,,,0.00,WUHU216DAVISVP2,2013-11-06 06:57:00,
2013-11-06 01:02:00,26.0,17.9,30.15,WNW,302,0.0,0.0,71,0.00,,,0.00,WUHU216DAVISVP2,2013-11-06 07:02:00,
2013-11-06 01:07:00,25.7,17.6,30.15,WNW,302,0.0,0.0,71,0.00,,,0.00,WUHU216DAVISVP2,2013-11-06 07:07:00,
2013-11-06 01:12:00,25.4,17.4,30.14,WNW,302,0.0,0.0,71,0.00,,,0.00,WUHU216DAVISVP2,2013-11-06 07:12:00,
2013-11-06 01:17:00,25.1,17.4,30.14,WNW,303,0.0,0.0,72,0.00,,,0.00,WUHU216DAVISVP2,2013-11-06 07:17:00,
2013-11-06 01:22:00,24.9,17.2,30.14,WNW,303,0.0,0.0,72,0.00,,,0.00,WUHU216DAVISVP2,2013-11-06 07:22:00,
2013-11-06 01:27:00,24.7,17.3,30.14,WNW,303,0.0,0.0,73,0.00,,,0.00,WUHU216DAVISVP2,2013-11-06 07:27:00,
2013-11-06 01:32:00,24.6,17.2,30.14,WNW,302,0.0,0.0,73,0.00,,,0.00,WUHU216DAVISVP2,2013-11-06 07:32:00,
2013-11-06 01:37:00,24.6,17.2,30.14,WNW,302,0.0,0.0,73,0.00,,,0.00,WUHU216DAVISVP2,2013-11-06 07:37:00,
2013-11-06 01:42:00,24.4,17.0,30.14,WNW,303,0.0,0.0,73,0.00,,,0.00,WUHU216DAVISVP2,2013-11-06 07:42:00,
2013-11-06 01:47:00,24.3,16.9,30.14,WNW,302,0.0,0.0,73,0.00,,,0.00,WUHU216DAVISVP2,2013-11-06 07:47:00,
2013-11-06 01:52:00,24.2,16.8,30.14,WNW,302,0.0,0.0,73,0.00,,,0.00,WUHU216DAVISVP2,2013-11-06 07:52:00,
2013-11-06 01:57:00,24.1,16.7,30.14,WNW,303,0.0,0.0,73,0.00,,,0.00,WUHU216DAVISVP2,2013-11-06 07:57:00,
2013-11-06 02:02:00,24.2,16.8,30.14,WNW,303,0.0,0.0,73,0.00,,,0.00,WUHU216DAVISVP2,2013-11-06 08:02:00,
2013-11-06 02:07:00,24.1,16.7,30.14,WNW,303,0.0,0.0,73,0.00,,,0.00,WUHU216DAVISVP2,2013-11-06 08:07:00,
2013-11-06 02:12:00,24.0,16.6,30.14,WNW,303,0.0,0.0,73,0.00,,,0.00,WUHU216DAVISVP2,2013-11-06 08:12:00,
2013-11-06 02:17:00,23.8,16.4,30.14,WNW,302,0.0,0.0,73,0.00,,,0.00,WUHU216DAVISVP2,2013-11-06 08:17:00,
2013-11-06 02:22:00,23.6,16.6,30.14,WNW,302,0.0,0.0,74,0.00,,,0.00,WUHU216DAVISVP2,2013-11-06 08:22:00,
2013-11-06 02:27:00,23.4,16.4,30.14,WNW,302,0.0,0.0,74,0.00,,,0.00,WUHU216DAVISVP2,2013-11-06 08:27:00,
2013-11-06 02:32:00,23.3,16.3,30.14,WNW,302,0.0,0.0,74,0.00,,,0.00,WUHU216DAVISVP2,2013-11-06 08:32:00,
2013-11-06 02:37:00,23.1,16.1,30.14,WNW,302,0.0,0.0,74,0.00,,,0.00,WUHU216DAVISVP2,2013-11-06 08:37:00,
2013-11-06 02:42:00,23.0,16.0,30.14,WNW,302,0.0,0.0,74,0.00,,,0.00,WUHU216DAVISVP2,2013-11-06 08:42:00,
2013-11-06 02:47:00,22.7,16.0,30.14,WNW,302,0.0,0.0,75,0.00,,,0.00,WUHU216DAVISVP2,2013-11-06 08:47:00,
2013-11-06 02:52:00,22.5,15.8,30.14,WNW,303,0.0,0.0,75,0.00,,,0.00,WUHU216DAVISVP2,2013-11-06 08:52:00,
2013-11-06 02:57:00,22.5,15.8,30.14,WNW,303,0.0,0.0,75,0.00,,,0.00,WUHU216DAVISVP2,2013-11-06 08:57:00,
2013-11-06 03:02:00,22.4,15.7,30.14,WNW,302,0.0,0.0,75,0.00,,,0.00,WUHU216DAVISVP2,2013-11-06 09:02:00,
2013-11-06 03:07:00,22.2,15.5,30.14,WNW,303,0.0,0.0,75,0.00,,,0.00,WUHU216DAVISVP2,2013-11-06 09:07:00,
2013-11-06 03:12:00,22.2,15.5,30.15,WNW,302,0.0,0.0,75,0.00,,,0.00,WUHU216DAVISVP2,2013-11-06 09:12:00,
2013-11-06 03:17:00,22.1,15.4,30.15,WNW,303,0.0,0.0,75,0.00,,,0.00,WUHU216DAVISVP2,2013-11-06 09:17:00,
2013-11-06 03:22:00,21.9,15.2,30.15,WNW,303,0.0,0.0,75,0.00,,,0.00,WUHU216DAVISVP2,2013-11-06 09:22:00,
2013-11-06 03:27:00,21.8,15.4,30.15,WNW,303,0.0,0.0,76,0.00,,,0.00,WUHU216DAVISVP2,2013-11-06 09:27:00,
2013-11-06 03:32:00,21.7,15.3,30.14,WNW,303,0.0,0.0,76,0.00,,,0.00,WUHU216DAVISVP2,2013-11-06 09:32:00,
2013-11-06 03:37:00,21.6,15.2,30.14,WNW,303,0.0,0.0,76,0.00,,,0.00,WUHU216DAVISVP2,2013-11-06 09:37:00,
2013-11-06 03:42:00,21.5,15.1,30.14,WNW,302,0.0,0.0,76,0.00,,,0.00,WUHU216DAVISVP2,2013-11-06 09:42:00,
2013-11-06 03:47:00,21.5,15.4,30.14,WNW,302,0.0,0.0,77,0.00,,,0.00,WUHU216DAVISVP2,2013-11-06 09:47:00,
2013-11-06 03:52:00,21.3,15.2,30.14,WNW,303,0.0,0.0,77,0.00,,,0.00,WUHU216DAVISVP2,2013-11-06 09:52:00,
2013-11-06 03:57:00,21.3,15.2,30.14,WNW,302,0.0,0.0,77,0.00,,,0.00,WUHU216DAVISVP2,2013-11-06 09:57:00,
2013-11-06 04:02:00,21.1,15.0,30.14,WNW,302,0.0,0.0,77,0.00,,,0.00,WUHU216DAVISVP2,2013-11-06 10:02:00,
2013-11-06 04:07:00,21.1,15.0,30.14,WNW,303,0.0,0.0,77,0.00,,,0.00,WUHU216DAVISVP2,2013-11-06 10:07:00,
2013-11-06 04:12:00,21.1,15.0,30.14,WNW,302,0.0,0.0,77,0.00,,,0.00,WUHU216DAVISVP2,2013-11-06 10:12:00,
2013-11-06 04:17:00,20.9,14.8,30.14,WNW,303,0.0,0.0,77,0.00,,,0.00,WUHU216DAVISVP2,2013-11-06 10:17:00,
2013-11-06 04:22:00,20.8,14.7,30.14,WNW,303,0.0,0.0,77,0.00,,,0.00,WUHU216DAVISVP2,2013-11-06 10:22:00,
2013-11-06 04:27:00,20.7,14.6,30.14,WNW,302,0.0,0.0,77,0.00,,,0.00,WUHU216DAVISVP2,2013-11-06 10:27:00,
2013-11-06 04:32:00,20.6,14.6,30.14,WNW,302,0.0,0.0,77,0.00,,,0.00,WUHU216DAVISVP2,2013-11-06 10:32:00,
2013-11-06 04:37:00,20.6,14.8,30.14,WNW,302,0.0,0.0,78,0.00,,,0.00,WUHU216DAVISVP2,2013-11-06 10:37:00,
2013-11-06 04:42:00,20.5,14.7,30.14,WNW,303,0.0,0.0,78,0.00,,,0.00,WUHU216DAVISVP2,2013-11-06 10:42:00,
2013-11-06 04:47:00,20.4,14.6,30.14,WNW,303,0.0,0.0,78,0.00,,,0.00,WUHU216DAVISVP2,2013-11-06 10:47:00,
2013-11-06 04:52:00,20.4,14.6,30.14,WNW,303,0.0,0.0,78,0.00,,,0.00,WUHU216DAVISVP2,2013-11-06 10:52:00,
2013-11-06 04:57:00,20.4,14.6,30.14,WNW,302,0.0,0.0,78,0.00,,,0.00,WUHU216DAVISVP2,2013-11-06 10:57:00,
2013-11-06 05:02:00,20.3,14.5,30.14,WNW,303,0.0,0.0,78,0.00,,,0.00,WUHU216DAVISVP2,2013-11-06 11:02:00,
2013-11-06 05:07:00,20.4,14.6,30.14,WNW,302,0.0,0.0,78,0.00,,,0.00,WUHU216DAVISVP2,2013-11-06 11:07:00,
2013-11-06 05:12:00,20.5,14.7,30.14,WNW,303,0.0,0.0,78,0.00,,,0.00,WUHU216DAVISVP2,2013-11-06 11:12:00,
2013-11-06 05:17:00,20.7,14.9,30.14,WNW,302,0.0,0.0,78,0.00,,,0.00,WUHU216DAVISVP2,2013-11-06 11:17:00,
2013-11-06 05:22:00,21.0,15.2,30.14,WNW,303,0.0,0.0,78,0.00,,,0.00,WUHU216DAVISVP2,2013-11-06 11:22:00,
2013-11-06 05:27:00,21.2,15.4,30.14,WNW,303,0.0,0.0,78,0.00,,,0.00,WUHU216DAVISVP2,2013-11-06 11:27:00,
2013-11-06 05:32:00,21.4,15.3,30.14,WNW,303,0.0,0.0,77,0.00,,,0.00,WUHU216DAVISVP2,2013-11-06 11:32:00,
2013-11-06 05:37:00,21.5,15.4,30.14,WNW,303,0.0,0.0,77,0.00,,,0.00,WUHU216DAVISVP2,2013-11-06 11:37:00,
2013-11-06 05:42:00,21.6,15.5,30.14,WNW,303,0.0,0.0,77,0.00,,,0.00,WUHU216DAVISVP2,2013-11-06 11:42:00,
2013-11-06 05:47:00,21.7,15.6,30.14,WNW,303,0.0,0.0,77,0.00,,,0.00,WUHU216DAVISVP2,2013-11-06 11:47:00,
2013-11-06 05:52:00,22.0,15.9,30.14,WNW,303,0.0,0.0,77,0.00,,,0.00,WUHU216DAVISVP2,2013-11-06 11:52:00,
2013-11-06 05:57:00,22.1,16.0,30.14,WNW,302,0.0,0.0,77,0.00,,,0.00,WUHU216DAVISVP2,2013-11-06 11:57:00,
2013-11-06 06:02:00,22.4,16.3,30.14,WNW,302,0.0,0.0,77,0.00,,,0.00,WUHU216DAVISVP2,2013-11-06 12:02:00,
2013-11-06 06:07:00,22.6,16.5,30.14,WNW,303,0.0,0.0,77,0.00,,,0.00,WUHU216DAVISVP2,2013-11-06 12:07:00,
2013-11-06 06:12:00,22.7,16.3,30.13,WNW,292,0.0,0.0,76,0.00,,,0.00,WUHU216DAVISVP2,2013-11-06 12:12:00,
2013-11-06 06:17:00,22.9,16.5,30.13,WNW,292,0.0,0.0,76,0.00,,,0.00,WUHU216DAVISVP2,2013-11-06 12:17:00,
2013-11-06 06:22:00,23.1,16.7,30.13,WNW,292,0.0,0.0,76,0.00,,,0.00,WUHU216DAVISVP2,2013-11-06 12:22:00,
2013-11-06 06:27:00,23.1,16.7,30.13,WNW,292,0.0,0.0,76,0.00,,,0.00,WUHU216DAVISVP2,2013-11-06 12:27:00,
2013-11-06 06:32:00,23.3,16.9,30.13,WNW,292,0.0,0.0,76,0.00,,,0.00,WUHU216DAVISVP2,2013-11-06 12:32:00,
2013-11-06 06:37:00,23.4,17.0,30.13,WNW,292,0.0,0.0,76,0.00,,,0.00,WUHU216DAVISVP2,2013-11-06 12:37:00,
2013-11-06 06:42:00,23.6,16.9,30.13,WNW,292,0.0,0.0,75,0.00,,,0.00,WUHU216DAVISVP2,2013-11-06 12:42:00,
2013-11-06 06:47:00,23.8,17.1,30.13,WNW,292,0.0,0.0,75,0.00,,,0.00,WUHU216DAVISVP2,2013-11-06 12:47:00,
2013-11-06 06:52:00,23.9,17.2,30.13,WNW,292,0.0,0.0,75,0.00,,,0.00,WUHU216DAVISVP2,2013-11-06 12:52:00,
2013-11-06 06:57:00,24.1,17.4,30.13,WNW,292,0.0,0.0,75,0.00,,,0.00,WUHU216DAVISVP2,2013-11-06 12:57:00,
2013-11-06 07:02:00,24.1,17.4,30.13,WNW,292,0.0,0.0,75,0.00,,,0.00,WUHU216DAVISVP2,2013-11-06 13:02:00,
2013-11-06 07:07:00,24.1,17.4,30.13,WNW,292,0.0,0.0,75,0.00,,,0.00,WUHU216DAVISVP2,2013-11-06 13:07:00,
2013-11-06 07:12:00,24.2,17.1,30.12,SSW,207,0.0,1.0,74,0.00,,,0.00,WUHU216DAVISVP2,2013-11-06 13:12:00,
2013-11-06 07:17:00,24.2,17.1,30.13,SSW,208,0.0,1.0,74,0.00,,,0.00,WUHU216DAVISVP2,2013-11-06 13:17:00,
2013-11-06 07:22:00,24.2,17.1,30.14,SSW,207,0.0,0.0,74,0.00,,,0.00,WUHU216DAVISVP2,2013-11-06 13:22:00,
2013-11-06 07:27:00,24.3,17.2,30.14,SSW,208,0.0,0.0,74,0.00,,,0.00,WUHU216DAVISVP2,2013-11-06 13:27:00,
2013-11-06 07:32:00,24.4,17.3,30.14,SSW,207,0.0,0.0,74,0.00,,,0.00,WUHU216DAVISVP2,2013-11-06 13:32:00,
2013-11-06 07:37:00,24.6,17.5,30.14,SSW,208,0.0,0.0,74,0.00,,,0.00,WUHU216DAVISVP2,2013-11-06 13:37:00,
2013-11-06 07:42:00,24.8,17.7,30.14,SSW,208,0.0,0.0,74,0.00,,,0.00,WUHU216DAVISVP2,2013-11-06 13:42:00,
2013-11-06 07:47:00,24.9,17.8,30.14,SSW,207,0.0,0.0,74,0.00,,,0.00,WUHU216DAVISVP2,2013-11-06 13:47:00,
2013-11-06 07:52:00,25.1,18.0,30.14,SSW,208,0.0,0.0,74,0.00,,,0.00,WUHU216DAVISVP2,2013-11-06 13:52:00,
2013-11-06 07:57:00,25.2,18.1,30.14,SSW,208,0.0,0.0,74,0.00,,,0.00,WUHU216DAVISVP2,2013-11-06 13:57:00,
2013-11-06 08:02:00,25.3,18.2,30.14,SSW,208,0.0,0.0,74,0.00,,,0.00,WUHU216DAVISVP2,2013-11-06 14:02:00,
2013-11-06 08:07:00,25.6,18.5,30.14,SSW,207,0.0,0.0,74,0.00,,,0.00,WUHU216DAVISVP2,2013-11-06 14:07:00,
2013-11-06 08:12:00,25.8,18.4,30.13,SSW,207,0.0,0.0,73,0.00,,,0.00,WUHU216DAVISVP2,2013-11-06 14:12:00,
2013-11-06 08:17:00,25.9,18.5,30.14,SSW,206,0.0,0.0,73,0.00,,,0.00,WUHU216DAVISVP2,2013-11-06 14:17:00,
2013-11-06 08:22:00,26.2,18.8,30.13,SSW,206,0.0,0.0,73,0.00,,,0.00,WUHU216DAVISVP2,2013-11-06 14:22:00,
2013-11-06 08:27:00,26.2,18.5,30.14,SSW,206,0.0,2.0,72,0.00,,,0.00,WUHU216DAVISVP2,2013-11-06 14:27:00,
2013-11-06 08:32:00,26.5,18.7,30.14,SSW,205,0.0,2.0,72,0.00,,,0.00,WUHU216DAVISVP2,2013-11-06 14:32:00,
2013-11-06 08:37:00,26.7,18.9,30.13,SSW,204,0.0,4.0,72,0.00,,,0.00,WUHU216DAVISVP2,2013-11-06 14:37:00,
2013-11-06 08:42:00,26.9,19.1,30.13,SSW,199,0.0,4.0,72,0.00,,,0.00,WUHU216DAVISVP2,2013-11-06 14:42:00,
2013-11-06 08:47:00,27.1,19.3,30.13,SSW,198,0.0,0.0,72,0.00,,,0.00,WUHU216DAVISVP2,2013-11-06 14:47:00,
2013-11-06 08:52:00,27.4,19.3,30.13,SSW,194,0.0,2.0,71,0.00,,,0.00,WUHU216DAVISVP2,2013-11-06 14:52:00,
2013-11-06 08:57:00,27.6,19.5,30.12,SSW,193,0.0,3.0,71,0.00,,,0.00,WUHU216DAVISVP2,2013-11-06 14:57:00,
2013-11-06 09:02:00,27.9,19.4,30.12,SSW,193,0.0,6.0,70,0.00,,,0.00,WUHU216DAVISVP2,2013-11-06 15:02:00,
2013-11-06 09:07:00,28.1,19.6,30.12,SSW,193,0.0,6.0,70,0.00,,,0.00,WUHU216DAVISVP2,2013-11-06 15:07:00,
2013-11-06 09:12:00,28.3,19.8,30.13,SSW,192,1.0,4.0,70,0.00,,,0.00,WUHU216DAVISVP2,2013-11-06 15:12:00,
2013-11-06 09:17:00,28.6,19.4,30.12,South,191,0.0,4.0,68,0.00,,,0.00,WUHU216DAVISVP2,2013-11-06 15:17:00,
2013-11-06 09:22:00,28.8,19.6,30.12,SSW,192,1.0,3.0,68,0.00,,,0.00,WUHU216DAVISVP2,2013-11-06 15:22:00,
2013-11-06 09:27:00,29.1,19.9,30.12,SSW,192,0.0,3.0,68,0.00,,,0.00,WUHU216DAVISVP2,2013-11-06 15:27:00,
2013-11-06 09:32:00,29.3,20.1,30.12,SSW,192,0.0,1.0,68,0.00,,,0.00,WUHU216DAVISVP2,2013-11-06 15:32:00,
2013-11-06 09:37:00,29.4,20.2,30.12,South,191,2.0,3.0,68,0.00,,,0.00,WUHU216DAVISVP2,2013-11-06 15:37:00,
2013-11-06 09:42:00,29.5,20.3,30.12,SSW,192,0.0,3.0,68,0.00,,,0.00,WUHU216DAVISVP2,2013-11-06 15:42:00,
2013-11-06 09:47:00,29.6,20.7,30.12,South,191,0.0,4.0,69,0.00,,,0.00,WUHU216DAVISVP2,2013-11-06 15:47:00,
2013-11-06 09:52:00,29.7,21.2,30.12,South,191,0.0,4.0,70,0.00,,,0.00,WUHU216DAVISVP2,2013-11-06 15:52:00,
2013-11-06 09:57:00,29.8,21.6,30.12,SSW,192,0.0,5.0,71,0.00,,,0.00,WUHU216DAVISVP2,2013-11-06 15:57:00,
2013-11-06 10:02:00,30.0,21.8,30.12,SSW,192,0.0,5.0,71,0.00,,,0.00,WUHU216DAVISVP2,2013-11-06 16:02:00,
2013-11-06 10:07:00,30.3,22.1,30.12,South,191,0.0,0.0,71,0.00,,,0.00,WUHU216DAVISVP2,2013-11-06 16:07:00,
2013-11-06 10:12:00,30.7,22.5,30.13,South,191,0.0,0.0,71,0.00,,,0.00,WUHU216DAVISVP2,2013-11-06 16:12:00,
2013-11-06 10:17:00,31.0,22.8,30.13,SSW,192,0.0,0.0,71,0.00,,,0.00,WUHU216DAVISVP2,2013-11-06 16:17:00,
2013-11-06 10:22:00,31.5,23.2,30.13,SSW,192,0.0,0.0,71,0.00,,,0.00,WUHU216DAVISVP2,2013-11-06 16:22:00,
2013-11-06 10:27:00,31.9,23.3,30.13,South,191,0.0,0.0,70,0.00,,,0.00,WUHU216DAVISVP2,2013-11-06 16:27:00,
2013-11-06 10:32:00,32.3,23.7,30.13,SSW,192,0.0,0.0,70,0.00,,,0.00,WUHU216DAVISVP2,2013-11-06 16:32:00,
2013-11-06 10:38:00,32.5,23.9,30.13,South,191,0.0,0.0,70,0.00,,,0.00,WUHU216DAVISVP2,2013-11-06 16:38:00,
2013-11-06 10:43:00,32.8,24.2,30.13,South,191,0.0,0.0,70,0.00,,,0.00,WUHU216DAVISVP2,2013-11-06 16:43:00,
2013-11-06 10:48:00,32.9,24.2,30.13,SSW,192,0.0,0.0,70,0.00,,,0.00,WUHU216DAVISVP2,2013-11-06 16:48:00,
2013-11-06 10:53:00,32.9,24.2,30.13,SSW,192,0.0,0.0,70,0.00,,,0.00,WUHU216DAVISVP2,2013-11-06 16:53:00,
2013-11-06 10:58:00,32.9,24.2,30.13,South,191,0.0,0.0,70,0.00,,,0.00,WUHU216DAVISVP2,2013-11-06 16:58:00,
2013-11-06 11:03:00,33.1,24.8,30.13,South,191,0.0,0.0,71,0.00,,,0.00,WUHU216DAVISVP2,2013-11-06 17:03:00,
2013-11-06 11:08:00,33.6,24.9,30.13,SSW,192,0.0,0.0,70,0.00,,,0.00,WUHU216DAVISVP2,2013-11-06 17:08:00,
2013-11-06 11:13:00,34.1,25.1,30.13,South,191,0.0,0.0,69,0.00,,,0.00,WUHU216DAVISVP2,2013-11-06 17:13:00,
2013-11-06 11:18:00,34.4,25.7,30.13,South,191,0.0,0.0,70,0.00,,,0.00,WUHU216DAVISVP2,2013-11-06 17:18:00,
2013-11-06 11:23:00,34.8,25.7,30.13,SSW,192,0.0,0.0,69,0.00,,,0.00,WUHU216DAVISVP2,2013-11-06 17:23:00,
2013-11-06 11:28:00,34.8,25.4,30.12,SSW,192,0.0,0.0,68,0.00,,,0.00,WUHU216DAVISVP2,2013-11-06 17:28:00,
2013-11-06 11:33:00,35.0,25.6,30.12,SSW,192,0.0,5.0,68,0.00,,,0.00,WUHU216DAVISVP2,2013-11-06 17:33:00,
2013-11-06 11:38:00,35.2,26.1,30.12,WSW,254,0.0,5.0,69,0.00,,,0.00,WUHU216DAVISVP2,2013-11-06 17:38:00,
2013-11-06 11:43:00,35.3,26.2,30.12,WSW,254,0.0,2.0,69,0.00,,,0.00,WUHU216DAVISVP2,2013-11-06 17:43:00,
2013-11-06 11:48:00,35.4,26.0,30.12,WSW,248,0.0,3.0,68,0.00,,,0.00,WUHU216DAVISVP2,2013-11-06 17:48:00,
2013-11-06 11:53:00,35.5,26.4,30.12,WSW,248,1.0,3.0,69,0.00,,,0.00,WUHU216DAVISVP2,2013-11-06 17:53:00,
2013-11-06 11:58:00,35.1,25.7,30.12,WNW,286,0.0,4.0,68,0.00,,,0.00,WUHU216DAVISVP2,2013-11-06 17:58:00,
2013-11-06 12:03:00,35.1,26.0,30.11,WNW,283,0.0,4.0,69,0.00,,,0.00,WUHU216DAVISVP2,2013-11-06 18:03:00,
2013-11-06 12:08:00,35.5,26.8,30.11,WNW,283,0.0,3.0,70,0.00,,,0.00,WUHU216DAVISVP2,2013-11-06 18:08:00,
2013-11-06 12:13:00,36.4,27.3,30.11,West,281,0.0,3.0,69,0.00,,,0.00,WUHU216DAVISVP2,2013-11-06 18:13:00,
2013-11-06 12:18:00,36.8,27.3,30.10,West,275,2.0,3.0,68,0.00,,,0.00,WUHU216DAVISVP2,2013-11-06 18:18:00,
2013-11-06 12:23:00,36.9,27.4,30.11,SW,225,0.0,4.0,68,0.00,,,0.00,WUHU216DAVISVP2,2013-11-06 18:23:00,
2013-11-06 12:28:00,36.9,27.0,30.10,SW,225,0.0,4.0,67,0.00,,,0.00,WUHU216DAVISVP2,2013-11-06 18:28:00,
2013-11-06 12:33:00,36.8,27.3,30.11,SW,225,0.0,0.0,68,0.00,,,0.00,WUHU216DAVISVP2,2013-11-06 18:33:00,
2013-11-06 12:38:00,37.1,27.2,30.10,SW,225,0.0,0.0,67,0.00,,,0.00,WUHU216DAVISVP2,2013-11-06 18:38:00,
2013-11-06 12:43:00,37.6,28.1,30.11,SW,227,0.0,1.0,68,0.00,,,0.00,WUHU216DAVISVP2,2013-11-06 18:43:00,
2013-11-06 12:48:00,38.1,27.8,30.10,SW,226,0.0,2.0,66,0.00,,,0.00,WUHU216DAVISVP2,2013-11-06 18:48:00,
2013-11-06 12:53:00,38.3,28.0,30.10,SW,226,0.0,2.0,66,0.00,,,0.00,WUHU216DAVISVP2,2013-11-06 18:53:00,
2013-11-06 12:58:00,38.4,28.1,30.09,SW,226,0.0,0.0,66,0.00,,,0.00,WUHU216DAVISVP2,2013-11-06 18:58:00,
2013-11-06 13:03:00,38.6,28.3,30.09,SW,225,0.0,3.0,66,0.00,,,0.00,WUHU216DAVISVP2,2013-11-06 19:03:00,
2013-11-06 13:08:00,38.7,28.4,30.09,SW,226,0.0,3.0,66,0.00,,,0.00,WUHU216DAVISVP2,2013-11-06 19:08:00,
2013-11-06 13:13:00,39.2,28.5,30.10,WSW,238,0.0,3.0,65,0.00,,,0.00,WUHU216DAVISVP2,2013-11-06 19:13:00,
2013-11-06 13:18:00,39.8,28.7,30.09,West,274,5.0,6.0,64,0.00,,,0.00,WUHU216DAVISVP2,2013-11-06 19:18:00,
2013-11-06 13:23:00,40.1,28.6,30.09,West,275,0.0,6.0,63,0.00,,,0.00,WUHU216DAVISVP2,2013-11-06 19:23:00,
2013-11-06 13:28:00,40.8,29.3,30.10,WNW,292,3.0,5.0,63,0.00,,,0.00,WUHU216DAVISVP2,2013-11-06 19:28:00,
2013-11-06 13:33:00,41.0,28.6,30.09,WNW,289,0.0,6.0,61,0.00,,,0.00,WUHU216DAVISVP2,2013-11-06 19:33:00,
2013-11-06 13:38:00,40.5,28.2,30.09,WNW,290,1.0,6.0,61,0.00,,,0.00,WUHU216DAVISVP2,2013-11-06 19:38:00,
2013-11-06 13:43:00,40.4,28.5,30.09,West,281,1.0,4.0,62,0.00,,,0.00,WUHU216DAVISVP2,2013-11-06 19:43:00,
2013-11-06 13:48:00,40.6,28.7,30.09,West,281,0.0,4.0,62,0.00,,,0.00,WUHU216DAVISVP2,2013-11-06 19:48:00,
2013-11-06 13:53:00,40.8,28.9,30.09,West,281,0.0,4.0,62,0.00,,,0.00,WUHU216DAVISVP2,2013-11-06 19:53:00,
2013-11-06 13:58:00,40.7,28.8,30.09,West,279,0.0,5.0,62,0.00,,,0.00,WUHU216DAVISVP2,2013-11-06 19:58:00,
2013-11-06 14:03:00,40.6,28.7,30.09,West,281,0.0,5.0,62,0.00,,,0.00,WUHU216DAVISVP2,2013-11-06 20:03:00,
2013-11-06 14:08:00,40.4,28.1,30.09,West,281,0.0,3.0,61,0.00,,,0.00,WUHU216DAVISVP2,2013-11-06 20:08:00,
2013-11-06 14:13:00,39.7,28.2,30.09,WNW,283,2.0,3.0,63,0.00,,,0.00,WUHU216DAVISVP2,2013-11-06 20:13:00,
2013-11-06 14:18:00,40.0,28.5,30.10,West,277,2.0,5.0,63,0.00,,,0.00,WUHU216DAVISVP2,2013-11-06 20:18:00,
2013-11-06 14:23:00,40.3,28.0,30.10,North,5,0.0,5.0,61,0.00,,,0.00,WUHU216DAVISVP2,2013-11-06 20:23:00,
2013-11-06 14:28:00,39.9,28.0,30.10,NW,322,1.0,4.0,62,0.00,,,0.00,WUHU216DAVISVP2,2013-11-06 20:28:00,
2013-11-06 14:33:00,39.5,28.0,30.10,NW,323,0.0,4.0,63,0.00,,,0.00,WUHU216DAVISVP2,2013-11-06 20:33:00,
2013-11-06 14:38:00,39.8,28.3,30.10,NW,323,1.0,3.0,63,0.00,,,0.00,WUHU216DAVISVP2,2013-11-06 20:38:00,
2013-11-06 14:43:00,39.7,28.2,30.10,North,355,0.0,5.0,63,0.00,,,0.00,WUHU216DAVISVP2,2013-11-06 20:43:00,
2013-11-06 14:48:00,39.8,28.7,30.10,North,355,0.0,5.0,64,0.00,,,0.00,WUHU216DAVISVP2,2013-11-06 20:48:00,
2013-11-06 14:53:00,39.8,28.7,30.10,NW,318,0.0,3.0,64,0.00,,,0.00,WUHU216DAVISVP2,2013-11-06 20:53:00,
2013-11-06 14:58:00,39.5,28.4,30.10,NNW,329,0.0,3.0,64,0.00,,,0.00,WUHU216DAVISVP2,2013-11-06 20:58:00,
2013-11-06 15:03:00,39.5,28.4,30.10,North,355,3.0,4.0,64,0.00,,,0.00,WUHU216DAVISVP2,2013-11-06 21:03:00,
2013-11-06 15:08:00,39.6,28.5,30.10,NW,317,0.0,4.0,64,0.00,,,0.00,WUHU216DAVISVP2,2013-11-06 21:08:00,
2013-11-06 15:13:00,39.4,28.3,30.10,NW,318,0.0,4.0,64,0.00,,,0.00,WUHU216DAVISVP2,2013-11-06 21:13:00,
2013-11-06 15:18:00,39.1,28.0,30.11,NNW,347,0.0,4.0,64,0.00,,,0.00,WUHU216DAVISVP2,2013-11-06 21:18:00,
2013-11-06 15:23:00,38.9,28.2,30.11,NNW,348,0.0,4.0,65,0.00,,,0.00,WUHU216DAVISVP2,2013-11-06 21:23:00,
2013-11-06 15:28:00,38.9,28.2,30.11,North,349,0.0,3.0,65,0.00,,,0.00,WUHU216DAVISVP2,2013-11-06 21:28:00,
2013-11-06 15:33:00,39.0,28.3,30.11,North,350,1.0,4.0,65,0.00,,,0.00,WUHU216DAVISVP2,2013-11-06 21:33:00,
2013-11-06 15:38:00,38.7,27.6,30.11,North,360,0.0,5.0,64,0.00,,,0.00,WUHU216DAVISVP2,2013-11-06 21:38:00,
2013-11-06 15:43:00,38.4,27.7,30.11,North,360,2.0,5.0,65,0.00,,,0.00,WUHU216DAVISVP2,2013-11-06 21:43:00,
2013-11-06 15:48:00,38.4,27.7,30.11,North,360,0.0,3.0,65,0.00,,,0.00,WUHU216DAVISVP2,2013-11-06 21:48:00,
2013-11-06 15:53:00,38.4,27.7,30.11,North,360,0.0,3.0,65,0.00,,,0.00,WUHU216DAVISVP2,2013-11-06 21:53:00,
2013-11-06 15:58:00,38.4,27.7,30.11,North,360,0.0,3.0,65,0.00,,,0.00,WUHU216DAVISVP2,2013-11-06 21:58:00,
2013-11-06 16:03:00,38.3,27.6,30.11,North,360,0.0,3.0,65,0.00,,,0.00,WUHU216DAVISVP2,2013-11-06 22:03:00,
2013-11-06 16:08:00,38.1,27.4,30.11,North,360,0.0,3.0,65,0.00,,,0.00,WUHU216DAVISVP2,2013-11-06 22:08:00,
2013-11-06 16:13:00,37.9,27.3,30.11,North,360,0.0,0.0,65,0.00,,,0.00,WUHU216DAVISVP2,2013-11-06 22:13:00,
2013-11-06 16:18:00,37.7,27.1,30.11,North,360,0.0,0.0,65,0.00,,,0.00,WUHU216DAVISVP2,2013-11-06 22:18:00,
2013-11-06 16:23:00,37.5,27.2,30.11,North,360,0.0,0.0,66,0.00,,,0.00,WUHU216DAVISVP2,2013-11-06 22:23:00,
2013-11-06 16:28:00,37.3,27.1,30.11,North,360,0.0,0.0,66,0.00,,,0.00,WUHU216DAVISVP2,2013-11-06 22:28:00,
2013-11-06 16:33:00,37.2,27.0,30.11,North,360,0.0,0.0,66,0.00,,,0.00,WUHU216DAVISVP2,2013-11-06 22:33:00,
2013-11-06 16:38:00,37.1,27.2,30.11,North,360,0.0,0.0,67,0.00,,,0.00,WUHU216DAVISVP2,2013-11-06 22:38:00,
2013-11-06 16:43:00,36.9,27.0,30.11,North,360,0.0,0.0,67,0.00,,,0.00,WUHU216DAVISVP2,2013-11-06 22:43:00,
2013-11-06 16:48:00,36.7,27.2,30.11,North,360,0.0,0.0,68,0.00,,,0.00,WUHU216DAVISVP2,2013-11-06 22:48:00,
2013-11-06 16:53:00,36.5,27.0,30.11,North,360,0.0,0.0,68,0.00,,,0.00,WUHU216DAVISVP2,2013-11-06 22:53:00,
2013-11-06 16:58:00,36.2,26.7,30.11,North,360,0.0,0.0,68,0.00,,,0.00,WUHU216DAVISVP2,2013-11-06 22:58:00,
2013-11-06 17:03:00,35.9,26.8,30.11,North,360,0.0,0.0,69,0.00,,,0.00,WUHU216DAVISVP2,2013-11-06 23:03:00,
2013-11-06 17:08:00,35.7,26.6,30.11,North,360,0.0,0.0,69,0.00,,,0.00,WUHU216DAVISVP2,2013-11-06 23:08:00,
2013-11-06 17:13:00,35.6,26.5,30.11,North,360,0.0,0.0,69,0.00,,,0.00,WUHU216DAVISVP2,2013-11-06 23:13:00,
2013-11-06 17:18:00,35.4,26.3,30.12,North,360,0.0,0.0,69,0.00,,,0.00,WUHU216DAVISVP2,2013-11-06 23:18:00,
2013-11-06 17:23:00,35.1,26.4,30.12,North,360,0.0,0.0,70,0.00,,,0.00,WUHU216DAVISVP2,2013-11-06 23:23:00,
2013-11-06 17:28:00,34.8,26.1,30.12,North,360,0.0,0.0,70,0.00,,,0.00,WUHU216DAVISVP2,2013-11-06 23:28:00,
2013-11-06 17:33:00,34.5,25.8,30.12,North,360,0.0,0.0,70,0.00,,,0.00,WUHU216DAVISVP2,2013-11-06 23:33:00,
2013-11-06 17:38:00,34.4,26.0,30.12,North,360,0.0,0.0,71,0.00,,,0.00,WUHU216DAVISVP2,2013-11-06 23:38:00,
2013-11-06 17:43:00,34.4,26.0,30.12,North,360,0.0,0.0,71,0.00,,,0.00,WUHU216DAVISVP2,2013-11-06 23:43:00,
2013-11-06 17:48:00,34.2,25.8,30.12,North,360,0.0,0.0,71,0.00,,,0.00,WUHU216DAVISVP2,2013-11-06 23:48:00,
2013-11-06 17:53:00,34.0,26.0,30.13,North,360,0.0,0.0,72,0.00,,,0.00,WUHU216DAVISVP2,2013-11-06 23:53:00,
2013-11-06 17:58:00,33.8,25.8,30.13,North,360,0.0,0.0,72,0.00,,,0.00,WUHU216DAVISVP2,2013-11-06 23:58:00,
2013-11-06 18:03:00,33.5,25.5,30.13,North,360,0.0,0.0,72,0.00,,,0.00,WUHU216DAVISVP2,2013-11-07 00:03:00,
2013-11-06 18:08:00,33.2,25.2,30.13,North,360,0.0,0.0,72,0.00,,,0.00,WUHU216DAVISVP2,2013-11-07 00:08:00,
2013-11-06 18:13:00,33.0,25.3,30.13,North,360,0.0,0.0,73,0.00,,,0.00,WUHU216DAVISVP2,2013-11-07 00:13:00,
2013-11-06 18:18:00,32.8,25.1,30.13,North,360,0.0,0.0,73,0.00,,,0.00,WUHU216DAVISVP2,2013-11-07 00:18:00,
2013-11-06 18:23:00,32.5,24.9,30.13,North,360,0.0,0.0,73,0.00,,,0.00,WUHU216DAVISVP2,2013-11-07 00:23:00,
2013-11-06 18:28:00,32.2,24.6,30.14,North,360,0.0,0.0,73,0.00,,,0.00,WUHU216DAVISVP2,2013-11-07 00:28:00,
2013-11-06 18:33:00,32.0,24.7,30.14,North,360,0.0,0.0,74,0.00,,,0.00,WUHU216DAVISVP2,2013-11-07 00:33:00,
2013-11-06 18:38:00,32.2,24.9,30.14,North,360,0.0,0.0,74,0.00,,,0.00,WUHU216DAVISVP2,2013-11-07 00:38:00,
2013-11-06 18:43:00,32.6,25.3,30.14,North,360,0.0,0.0,74,0.00,,,0.00,WUHU216DAVISVP2,2013-11-07 00:43:00,
2013-11-06 18:48:00,32.5,24.9,30.14,North,360,0.0,0.0,73,0.00,,,0.00,WUHU216DAVISVP2,2013-11-07 00:48:00,
2013-11-06 18:53:00,32.1,24.5,30.14,North,360,0.0,0.0,73,0.00,,,0.00,WUHU216DAVISVP2,2013-11-07 00:53:00,
2013-11-06 18:58:00,31.7,24.4,30.14,North,360,0.0,0.0,74,0.00,,,0.00,WUHU216DAVISVP2,2013-11-07 00:58:00,
2013-11-06 19:03:00,31.4,24.1,30.14,North,360,0.0,0.0,74,0.00,,,0.00,WUHU216DAVISVP2,2013-11-07 01:03:00,
2013-11-06 19:08:00,31.2,24.2,30.14,North,360,0.0,0.0,75,0.00,,,0.00,WUHU216DAVISVP2,2013-11-07 01:08:00,
2013-11-06 19:13:00,31.0,24.0,30.14,North,360,0.0,0.0,75,0.00,,,0.00,WUHU216DAVISVP2,2013-11-07 01:13:00,
2013-11-06 19:18:00,30.9,23.9,30.14,North,360,0.0,0.0,75,0.00,,,0.00,WUHU216DAVISVP2,2013-11-07 01:18:00,
2013-11-06 19:23:00,30.8,23.8,30.14,North,360,0.0,0.0,75,0.00,,,0.00,WUHU216DAVISVP2,2013-11-07 01:23:00,
2013-11-06 19:28:00,30.7,23.8,30.15,North,360,0.0,0.0,75,0.00,,,0.00,WUHU216DAVISVP2,2013-11-07 01:28:00,
2013-11-06 19:33:00,30.5,23.6,30.15,North,360,0.0,0.0,75,0.00,,,0.00,WUHU216DAVISVP2,2013-11-07 01:33:00,
2013-11-06 19:38:00,30.3,23.7,30.15,North,360,0.0,0.0,76,0.00,,,0.00,WUHU216DAVISVP2,2013-11-07 01:38:00,
2013-11-06 19:43:00,30.1,23.5,30.15,North,360,0.0,0.0,76,0.00,,,0.00,WUHU216DAVISVP2,2013-11-07 01:43:00,
2013-11-06 19:48:00,30.0,23.4,30.15,North,360,0.0,0.0,76,0.00,,,0.00,WUHU216DAVISVP2,2013-11-07 01:48:00,
2013-11-06 19:53:00,29.8,23.2,30.15,North,360,0.0,0.0,76,0.00,,,0.00,WUHU216DAVISVP2,2013-11-07 01:53:00,
2013-11-06 19:58:00,29.6,23.0,30.15,North,360,0.0,0.0,76,0.00,,,0.00,WUHU216DAVISVP2,2013-11-07 01:58:00,
2013-11-06 20:03:00,29.3,23.0,30.15,North,360,0.0,0.0,77,0.00,,,0.00,WUHU216DAVISVP2,2013-11-07 02:03:00,
2013-11-06 20:08:00,29.1,22.8,30.15,North,360,0.0,0.0,77,0.00,,,0.00,WUHU216DAVISVP2,2013-11-07 02:08:00,
2013-11-06 20:13:00,28.8,22.5,30.15,North,360,0.0,0.0,77,0.00,,,0.00,WUHU216DAVISVP2,2013-11-07 02:13:00,
2013-11-06 20:18:00,28.6,22.3,30.15,North,360,0.0,0.0,77,0.00,,,0.00,WUHU216DAVISVP2,2013-11-07 02:18:00,
2013-11-06 20:23:00,28.4,22.1,30.15,North,360,0.0,0.0,77,0.00,,,0.00,WUHU216DAVISVP2,2013-11-07 02:23:00,
2013-11-06 20:28:00,28.3,22.3,30.15,North,360,0.0,0.0,78,0.00,,,0.00,WUHU216DAVISVP2,2013-11-07 02:28:00,
2013-11-06 20:33:00,28.8,23.1,30.15,North,360,0.0,0.0,79,0.00,,,0.00,WUHU216DAVISVP2,2013-11-07 02:33:00,
2013-11-06 20:38:00,29.3,23.3,30.16,North,360,0.0,2.0,78,0.00,,,0.00,WUHU216DAVISVP2,2013-11-07 02:38:00,
2013-11-06 20:43:00,29.7,23.1,30.16,North,360,0.0,2.0,76,0.00,,,0.00,WUHU216DAVISVP2,2013-11-07 02:43:00,
2013-11-06 20:48:00,29.6,22.4,30.16,North,360,0.0,0.0,74,0.00,,,0.00,WUHU216DAVISVP2,2013-11-07 02:48:00,
2013-11-06 20:53:00,29.6,22.1,30.16,North,360,0.0,0.0,73,0.00,,,0.00,WUHU216DAVISVP2,2013-11-07 02:53:00,
2013-11-06 20:58:00,29.8,21.6,30.16,North,360,0.0,0.0,71,0.00,,,0.00,WUHU216DAVISVP2,2013-11-07 02:58:00,
2013-11-06 21:03:00,29.9,21.4,30.16,North,360,0.0,0.0,70,0.00,,,0.00,WUHU216DAVISVP2,2013-11-07 03:03:00,
2013-11-06 21:08:00,29.9,20.7,30.16,North,360,0.0,0.0,68,0.00,,,0.00,WUHU216DAVISVP2,2013-11-07 03:08:00,
2013-11-06 21:13:00,29.8,20.6,30.16,North,360,0.0,0.0,68,0.00,,,0.00,WUHU216DAVISVP2,2013-11-07 03:13:00,
2013-11-06 21:18:00,29.5,20.3,30.16,North,360,0.0,0.0,68,0.00,,,0.00,WUHU216DAVISVP2,2013-11-07 03:18:00,
2013-11-06 21:23:00,29.5,20.3,30.16,North,360,0.0,0.0,68,0.00,,,0.00,WUHU216DAVISVP2,2013-11-07 03:23:00,
2013-11-06 21:28:00,29.5,20.3,30.16,North,360,0.0,0.0,68,0.00,,,0.00,WUHU216DAVISVP2,2013-11-07 03:28:00,
2013-11-06 21:33:00,29.5,20.3,30.16,North,360,0.0,0.0,68,0.00,,,0.00,WUHU216DAVISVP2,2013-11-07 03:33:00,
2013-11-06 21:38:00,29.4,19.9,30.16,North,360,0.0,0.0,67,0.00,,,0.00,WUHU216DAVISVP2,2013-11-07 03:38:00,
2013-11-06 21:43:00,29.4,19.9,30.17,North,360,0.0,0.0,67,0.00,,,0.00,WUHU216DAVISVP2,2013-11-07 03:43:00,
2013-11-06 21:48:00,29.3,19.8,30.17,North,360,0.0,0.0,67,0.00,,,0.00,WUHU216DAVISVP2,2013-11-07 03:48:00,
2013-11-06 21:53:00,29.1,19.6,30.17,North,360,0.0,0.0,67,0.00,,,0.00,WUHU216DAVISVP2,2013-11-07 03:53:00,
2013-11-06 21:58:00,28.8,19.3,30.17,North,360,0.0,0.0,67,0.00,,,0.00,WUHU216DAVISVP2,2013-11-07 03:58:00,
2013-11-06 22:03:00,28.4,19.2,30.17,North,360,0.0,0.0,68,0.00,,,0.00,WUHU216DAVISVP2,2013-11-07 04:03:00,
2013-11-06 22:08:00,28.0,18.9,30.17,North,360,0.0,0.0,68,0.00,,,0.00,WUHU216DAVISVP2,2013-11-07 04:08:00,
2013-11-06 22:13:00,27.7,18.9,30.17,North,360,0.0,0.0,69,0.00,,,0.00,WUHU216DAVISVP2,2013-11-07 04:13:00,
2013-11-06 22:18:00,27.4,18.6,30.18,North,360,0.0,0.0,69,0.00,,,0.00,WUHU216DAVISVP2,2013-11-07 04:18:00,
2013-11-06 22:23:00,27.2,18.8,30.18,North,360,0.0,0.0,70,0.00,,,0.00,WUHU216DAVISVP2,2013-11-07 04:23:00,
2013-11-06 22:28:00,27.1,18.7,30.17,North,360,0.0,0.0,70,0.00,,,0.00,WUHU216DAVISVP2,2013-11-07 04:28:00,
2013-11-06 22:33:00,26.9,18.8,30.17,North,360,0.0,0.0,71,0.00,,,0.00,WUHU216DAVISVP2,2013-11-07 04:33:00,
2013-11-06 22:38:00,26.7,18.6,30.18,North,360,0.0,0.0,71,0.00,,,0.00,WUHU216DAVISVP2,2013-11-07 04:38:00,
2013-11-06 22:43:00,26.5,18.4,30.18,North,360,0.0,0.0,71,0.00,,,0.00,WUHU216DAVISVP2,2013-11-07 04:43:00,
2013-11-06 22:48:00,26.3,18.2,30.18,North,360,0.0,0.0,71,0.00,,,0.00,WUHU216DAVISVP2,2013-11-07 04:48:00,
2013-11-06 22:53:00,26.2,18.5,30.18,North,360,0.0,0.0,72,0.00,,,0.00,WUHU216DAVISVP2,2013-11-07 04:53:00,
2013-11-06 22:58:00,26.1,18.4,30.18,North,360,0.0,0.0,72,0.00,,,0.00,WUHU216DAVISVP2,2013-11-07 04:58:00,
2013-11-06 23:01:00,26.1,18.4,30.18,North,360,0.0,0.0,72,0.00,,,0.00,WUHU216DAVISVP2,2013-11-07 05:01:00,
2013-11-06 23:02:00,26.1,18.4,30.18,North,360,0.0,0.0,72,0.00,,,0.00,WUHU216DAVISVP2,2013-11-07 05:02:00,
2013-11-06 23:06:00,26.0,18.3,30.18,North,360,0.0,0.0,72,0.00,,,0.00,WUHU216DAVISVP2,2013-11-07 05:06:00,
2013-11-06 23:11:00,25.9,18.5,30.18,North,360,0.0,0.0,73,0.00,,,0.00,WUHU216DAVISVP2,2013-11-07 05:11:00,
2013-11-06 23:16:00,25.8,18.4,30.18,North,360,0.0,0.0,73,0.00,,,0.00,WUHU216DAVISVP2,2013-11-07 05:16:00,
2013-11-06 23:21:00,25.9,18.5,30.18,North,360,0.0,0.0,73,0.00,,,0.00,WUHU216DAVISVP2,2013-11-07 05:21:00,
2013-11-06 23:26:00,26.1,19.0,30.18,North,360,0.0,0.0,74,0.00,,,0.00,WUHU216DAVISVP2,2013-11-07 05:26:00,
2013-11-06 23:31:00,26.3,19.2,30.19,North,360,0.0,0.0,74,0.00,,,0.00,WUHU216DAVISVP2,2013-11-07 05:31:00,
2013-11-06 23:36:00,26.4,19.3,30.19,North,360,0.0,0.0,74,0.00,,,0.00,WUHU216DAVISVP2,2013-11-07 05:36:00,
2013-11-06 23:41:00,26.6,19.5,30.19,North,360,0.0,0.0,74,0.00,,,0.00,WUHU216DAVISVP2,2013-11-07 05:41:00,
2013-11-06 23:46:00,26.7,19.6,30.19,North,360,0.0,0.0,74,0.00,,,0.00,WUHU216DAVISVP2,2013-11-07 05:46:00,
2013-11-06 23:51:00,27.0,19.9,30.19,North,360,0.0,0.0,74,0.00,,,0.00,WUHU216DAVISVP2,2013-11-07 05:51:00,
2013-11-06 23:56:00,27.1,20.0,30.19,North,360,0.0,0.0,74,0.00,,,0.00,WUHU216DAVISVP2,2013-11-07 05:56:00,